FW2458 Weather Reports


time (UTC)temp
C
wind
direction
speed
KPH
gust
KPH
rain 1hr
cm
rain 24hr
cm
rain mn
cm
humidity
%
barometer
mb
20260506143354 20 51 3.2 11.3 0.00 0.00 0.00 71 1009.0
20260506142620 20 63 3.2 20.9 0.00 0.00 0.00 71 1009.0
20260506142114 20 278 3.2 20.9 0.00 0.00 0.00 72 1008.9
20260506141609 20 232 4.8 20.9 0.00 0.00 0.00 71 1009.0
20260506141058 20 190 4.8 20.9 0.00 0.00 0.00 71 1009.0
20260506140557 20 204 3.2 9.7 0.00 0.00 0.00 71 1009.0
20260506140107 20 191 3.2 9.7 0.00 0.00 0.00 71 1009.0
20260506135554 20 183 3.2 9.7 0.00 0.00 0.00 72 1009.1
20260506135316 20 198 3.2 9.7 0.00 0.00 0.00 72 1009.2
20260506134554 20 59 3.2 19.3 0.00 0.00 0.00 73 1009.2
20260506134056 19 211 4.8 19.3 0.00 0.00 0.00 73 1009.1
20260506133551 19 75 4.8 24.1 0.00 0.00 0.00 73 1009.2
20260506133051 19 229 4.8 24.1 0.00 0.00 0.00 73 1009.5
20260506132547 19 189 3.2 16.1 0.00 0.00 0.00 74 1009.3
20260506132050 19 111 3.2 9.7 0.00 0.00 0.00 74 1009.1
20260506131550 18 86 1.6 8.0 0.00 0.00 0.00 75 1009.2
20260506131048 18 243 3.2 9.7 0.00 0.00 0.00 75 1009.3
20260506130548 18 38 3.2 9.7 0.00 0.00 0.00 75 1009.3
20260506130049 18 209 3.2 11.3 0.00 0.00 0.00 75 1009.3
20260506125549 18 84 3.2 11.3 0.00 0.00 0.00 75 1009.2
20260506125045 18 89 3.2 11.3 0.00 0.00 0.00 75 1009.1
20260506124543 18 47 3.2 17.7 0.00 0.00 0.00 75 1009.0
20260506124047 18 90 3.2 17.7 0.00 0.00 0.00 76 1008.9
20260506123544 18 121 3.2 17.7 0.00 0.00 0.00 76 1009.0
20260506123039 18 197 1.6 17.7 0.00 0.00 0.00 77 1008.9
20260506122540 18 250 3.2 11.3 0.00 0.00 0.00 77 1009.0
20260506122040 18 58 3.2 11.3 0.00 0.00 0.00 77 1009.1
20260506121539 18 36 3.2 9.7 0.00 0.00 0.00 77 1009.2
20260506121040 18 219 3.2 11.3 0.00 0.00 0.00 77 1009.2
20260506120540 18 66 3.2 12.9 0.00 0.00 0.00 77 1009.3
20260506120053 18 94 3.2 12.9 0.00 0.00 0.00 77 1009.3
20260506115544 18 54 1.6 14.5 0.00 0.00 0.00 77 1009.3
20260506115523 18 146 1.6 14.5 0.00 0.00 0.00 77 1009.4
20260506114541 18 217 1.6 14.5 0.00 0.00 0.00 78 1009.3
20260506114040 18 80 3.2 14.5 0.00 0.00 0.00 78 1009.4
20260506113534 18 229 3.2 9.7 0.00 0.00 0.00 78 1009.3
20260506113028 18 96 3.2 9.7 0.00 0.00 0.00 78 1009.3
20260506112524 18 30 1.6 9.7 0.00 0.00 0.00 78 1009.4
20260506112025 18 96 1.6 6.4 0.00 0.00 0.00 78 1009.3
20260506111524 18 196 1.6 6.4 0.00 0.00 0.00 79 1009.3
20260506111024 17 67 1.6 11.3 0.00 0.00 0.00 79 1009.3
20260506110537 17 243 1.6 11.3 0.00 0.00 0.00 79 1009.3
20260506110244 17 205 1.6 11.3 0.00 0.00 0.00 80 1009.3
20260506105520 17 152 1.6 11.3 0.00 0.00 0.00 80 1009.2
20260506105020 17 89 1.6 8.0 0.00 0.00 0.00 80 1009.2
20260506104515 17 105 1.6 8.0 0.00 0.00 0.00 80 1009.1
20260506104242 17 217 1.6 8.0 0.00 0.00 0.00 80 1009.2
20260506103514 17 152 1.6 9.7 0.00 0.00 0.00 81 1009.3
20260506103013 17 301 3.2 9.7 0.00 0.00 0.00 81 1009.2
20260506102515 17 108 1.6 9.7 0.00 0.00 0.00 81 1009.2
20260506102013 17 21 1.6 9.7 0.00 0.00 0.00 81 1009.2
20260506101512 17 18 1.6 9.7 0.00 0.00 0.00 81 1009.1
20260506101237 17 162 1.6 9.7 0.00 0.00 0.00 81 1009.1
20260506100504 17 246 1.6 9.7 0.00 0.00 0.00 81 1009.0
20260506095957 17 96 1.6 9.7 0.00 0.00 0.00 82 1009.1
20260506095716 17 198 1.6 8.0 0.00 0.00 0.00 82 1009.0
20260506094940 17 51 0.0 6.4 0.00 0.00 0.00 82 1008.9
20260506094441 17 246 1.6 6.4 0.00 0.00 0.00 82 1009.0
20260506093938 16 120 1.6 6.4 0.00 0.00 0.00 82 1008.9
20260506093440 16 67 1.6 6.4 0.00 0.00 0.00 82 1008.9
20260506093157 16 67 1.6 6.4 0.00 0.00 0.00 83 1009.1
20260506092436 16 46 0.0 4.8 0.00 0.00 0.00 83 1009.0
20260506092158 16 46 0.0 4.8 0.00 0.00 0.00 82 1009.1
20260506091437 16 46 0.0 3.2 0.00 0.00 0.00 82 1009.0
20260506090937 16 46 0.0 3.2 0.00 0.00 0.00 82 1009.2
20260506090432 16 46 0.0 3.2 0.00 0.00 0.00 82 1009.1
20260506085947 16 41 0.0 4.8 0.00 0.00 0.00 82 1009.2
20260506085936 16 46 1.6 4.8 0.00 0.00 0.00 82 1009.2
20260506084929 16 41 0.0 3.2 0.00 0.00 0.00 81 1009.2
20260506084436 16 40 0.0 3.2 0.00 0.00 0.00 82 1009.3
20260506083926 16 40 0.0 3.2 0.00 0.00 0.00 81 1009.3
20260506083426 16 34 1.6 6.4 0.00 0.00 0.00 81 1009.3
20260506082925 16 34 0.0 6.4 0.00 0.00 0.00 81 1009.3
20260506082428 17 200 0.0 3.2 0.00 0.00 0.00 80 1009.2
20260506081925 17 199 0.0 1.6 0.00 0.00 0.00 79 1009.4
20260506081424 17 199 0.0 3.2 0.00 0.00 0.00 79 1009.3
20260506080923 17 200 0.0 3.2 0.00 0.00 0.00 78 1009.3
20260506080421 17 199 0.0 4.8 0.00 0.00 0.00 78 1009.3
20260506073413 17 249 1.6 9.7 0.00 0.00 0.00 77 1009.4
20260506072915 17 169 0.0 4.8 0.00 0.00 0.00 76 1009.4
20260506072414 17 211 0.0 4.8 0.00 0.00 0.00 75 1009.4
20260506072133 17 211 0.0 6.4 0.00 0.00 0.00 75 1009.3
20260506071416 18 148 0.0 6.4 0.00 0.00 0.00 74 1009.3
20260506071135 18 151 0.0 6.4 0.00 0.00 0.00 74 1009.3
20260506070414 18 151 0.0 6.4 0.00 0.00 0.00 74 1009.4
20260506062414 18 227 1.6 6.4 0.00 0.00 0.00 71 1009.5
20260506061915 18 55 0.0 6.4 0.00 0.00 0.00 71 1009.5
20260506061643 18 55 1.6 6.4 0.00 0.00 0.00 70 1009.5
20260506060914 18 225 1.6 4.8 0.00 0.00 0.00 70 1009.5
20260506060414 18 96 1.6 9.7 0.00 0.00 0.00 70 1009.5
20260506051401 19 53 3.2 9.7 0.00 0.00 0.00 67 1010.0
20260506050904 19 207 1.6 9.7 0.00 0.00 0.00 67 1010.0
20260506050604 19 109 1.6 9.7 0.00 0.00 0.00 67 1010.1
20260506050458 19 92 1.6 9.7 0.00 0.00 0.00 67 1010.0
20260506044858 19 208 1.6 8.0 0.00 0.00 0.00 66 1010.1
20260506044354 19 152 3.2 14.5 0.00 0.00 0.00 66 1010.1
20260506043855 19 213 3.2 14.5 0.00 0.00 0.00 66 1010.1
20260506043355 19 117 3.2 11.3 0.00 0.00 0.00 66 1009.9
20260506042855 19 83 1.6 11.3 0.00 0.00 0.00 65 1010.0
20260506042356 19 263 1.6 8.0 0.00 0.00 0.00 65 1010.1
20260506041853 19 77 1.6 8.0 0.00 0.00 0.00 65 1010.0
20260506041351 19 221 1.6 6.4 0.00 0.00 0.00 65 1010.0
20260506040901 19 121 1.6 4.8 0.00 0.00 0.00 65 1010.0
20260506040346 20 71 1.6 9.7 0.00 0.00 0.00 65 1010.0
20260506035846 20 196 1.6 9.7 0.00 0.00 0.00 65 1009.9
20260506035347 20 5 1.6 8.0 0.00 0.00 0.00 65 1009.9
20260506035108 20 68 1.6 8.0 0.00 0.00 0.00 65 1009.9
20260506034346 20 242 1.6 14.5 0.00 0.00 0.00 64 1009.8
20260506033846 20 92 1.6 14.5 0.00 0.00 0.00 64 1010.0
20260506033345 20 113 1.6 14.5 0.00 0.00 0.00 63 1010.0
20260506032845 20 204 1.6 14.5 0.00 0.00 0.00 63 1009.9
20260506032344 20 204 1.6 6.4 0.00 0.00 0.00 62 1009.9
20260506031845 20 73 1.6 6.4 0.00 0.00 0.00 62 1009.9
20260506031608 20 56 1.6 6.4 0.00 0.00 0.00 61 1010.0
20260506031107 21 39 1.6 9.7 0.00 0.00 0.00 60 1009.9
20260506030346 21 40 1.6 9.7 0.00 0.00 0.00 60 1009.9
20260506025848 21 154 1.6 11.3 0.00 0.00 0.00 60 1009.9
20260506025337 21 153 3.2 11.3 0.00 0.00 0.00 59 1009.8
20260506025050 21 103 1.6 11.3 0.00 0.00 0.00 58 1009.7
20260506024324 21 220 3.2 6.4 0.00 0.00 0.00 57 1009.8
20260506023815 21 130 3.2 24.1 0.00 0.00 0.00 57 1009.8
20260506023309 21 215 1.6 24.1 0.00 0.00 0.00 56 1009.7
20260506022801 22 52 1.6 17.7 0.00 0.00 0.00 55 1009.7
20260506022251 22 132 3.2 17.7 0.00 0.00 0.00 55 1009.7
20260506021745 22 128 4.8 19.3 0.00 0.00 0.00 54 1009.7
20260506021239 22 220 4.8 20.9 0.00 0.00 0.00 53 1009.7
20260506020954 22 24 3.2 14.5 0.00 0.00 0.00 52 1009.7
20260506020449 22 211 3.2 14.5 0.00 0.00 0.00 52 1009.6
20260506015716 22 196 3.2 14.5 0.00 0.00 0.00 51 1009.7
20260506015206 22 292 3.2 14.5 0.00 0.00 0.00 50 1009.5
20260506014700 22 172 3.2 12.9 0.00 0.00 0.00 49 1009.6
20260506014155 22 239 3.2 12.9 0.00 0.00 0.00 49 1009.4
20260506013645 23 80 3.2 12.9 0.00 0.00 0.00 49 1009.4
20260506013139 23 234 3.2 11.3 0.00 0.00 0.00 48 1009.2
20260506012633 23 5 1.6 11.3 0.00 0.00 0.00 48 1009.2
20260506012123 23 169 1.6 11.3 0.00 0.00 0.00 48 1009.1
20260506011617 23 95 3.2 11.3 0.00 0.00 0.00 48 1009.0
20260506011113 23 17 3.2 11.3 0.00 0.00 0.00 47 1009.0
20260506010601 23 231 1.6 6.4 0.00 0.00 0.00 47 1008.9
20260506005548 23 216 3.2 20.9 0.00 0.00 0.00 47 1008.9
20260506005038 23 84 3.2 20.9 0.00 0.00 0.00 46 1008.9
20260506004800 23 60 3.2 20.9 0.00 0.00 0.00 45 1008.8
20260506004248 23 129 3.2 20.9 0.00 0.00 0.00 45 1008.8
20260506003739 23 101 3.2 12.9 0.00 0.00 0.00 44 1008.7
20260506003013 23 98 1.6 12.9 0.00 0.00 0.00 43 1008.7
20260506002505 23 220 1.6 12.9 0.00 0.00 0.00 43 1008.6
20260506001954 23 38 1.6 12.9 0.00 0.00 0.00 43 1008.5
20260506001449 23 210 1.6 11.3 0.00 0.00 0.00 43 1008.3
20260506000951 24 54 1.6 6.4 0.00 0.00 0.00 41 1008.3
20260506000432 24 69 1.6 6.4 0.00 0.00 0.00 40 1008.4
20260505235927 24 96 1.6 9.7 0.00 0.00 0.00 41 1008.3
20260505235420 25 97 1.6 9.7 0.00 0.00 0.00 39 1008.3
20260505235138 25 225 3.2 12.9 0.00 0.00 0.00 38 1008.3
20260505234404 25 62 3.2 12.9 0.00 0.00 0.00 38 1008.3
20260505233859 25 51 3.2 12.9 0.00 0.00 0.00 38 1008.3
20260505233349 25 178 3.2 12.9 0.00 0.00 0.00 37 1008.2
20260505233328 25 66 3.2 11.3 0.00 0.00 0.00 37 1008.1
20260505232336 25 145 3.2 11.3 0.00 0.00 0.00 37 1008.1
20260505231827 25 342 3.2 11.3 0.00 0.00 0.00 36 1008.1
20260505231320 25 150 3.2 11.3 0.00 0.00 0.00 37 1008.0
20260505231035 25 169 3.2 16.1 0.00 0.00 0.00 36 1008.0
20260505230305 26 237 3.2 16.1 0.00 0.00 0.00 35 1008.0
20260505225759 26 40 4.8 17.7 0.00 0.00 0.00 35 1007.9
20260505225254 26 171 3.2 17.7 0.00 0.00 0.00 34 1007.6
20260505224743 26 37 3.2 14.5 0.00 0.00 0.00 35 1007.8
20260505224236 26 178 3.2 17.7 0.00 0.00 0.00 34 1007.7
20260505223732 26 233 3.2 17.7 0.00 0.00 0.00 34 1007.7
20260505223221 26 192 4.8 16.1 0.00 0.00 0.00 34 1007.6
20260505222714 26 205 4.8 16.1 0.00 0.00 0.00 34 1007.6
20260505222211 26 158 4.8 17.7 0.00 0.00 0.00 33 1007.6
20260505221659 26 39 4.8 17.7 0.00 0.00 0.00 33 1007.6
20260505221153 27 48 4.8 17.7 0.00 0.00 0.00 33 1007.5
20260505220652 26 282 4.8 17.7 0.00 0.00 0.00 33 1007.4
20260505220149 27 211 4.8 12.9 0.00 0.00 0.00 34 1007.5
20260505215649 27 35 4.8 12.9 0.00 0.00 0.00 34 1007.5
20260505215149 27 88 4.8 16.1 0.00 0.00 0.00 35 1007.3
20260505214646 26 147 4.8 16.1 0.00 0.00 0.00 34 1007.2
20260505214411 26 61 4.8 16.1 0.00 0.00 0.00 34 1007.2
20260505213909 27 53 4.8 19.3 0.00 0.00 0.00 34 1007.3
20260505213147 27 105 4.8 19.3 0.00 0.00 0.00 35 1007.3
20260505212646 27 161 4.8 20.9 0.00 0.00 0.00 35 1007.0
20260505212146 27 42 6.4 22.5 0.00 0.00 0.00 35 1006.8
20260505211646 27 326 6.4 22.5 0.00 0.00 0.00 35 1006.7
20260505211405 27 237 6.4 19.3 0.00 0.00 0.00 33 1007.0
20260505210649 27 182 6.4 17.7 0.00 0.00 0.00 32 1007.1
20260505210201 27 34 6.4 25.7 0.00 0.00 0.00 33 1007.0
20260505205643 27 57 8.0 25.7 0.00 0.00 0.00 33 1006.9
20260505205146 27 217 6.4 24.1 0.00 0.00 0.00 33 1006.8
20260505204644 27 62 4.8 24.1 0.00 0.00 0.00 33 1007.0
20260505204145 27 179 6.4 24.1 0.00 0.00 0.00 34 1007.1
20260505203646 27 57 4.8 24.1 0.00 0.00 0.00 34 1007.1
20260505203143 27 58 4.8 20.9 0.00 0.00 0.00 36 1007.1
20260505202641 27 66 6.4 29.0 0.00 0.00 0.00 34 1007.0
20260505202405 27 24 6.4 29.0 0.00 0.00 0.00 36 1007.1
20260505201640 27 217 6.4 29.0 0.00 0.00 0.00 35 1007.1
20260505201140 27 80 6.4 29.0 0.00 0.00 0.00 33 1007.3
20260505200640 27 247 6.4 20.9 0.00 0.00 0.00 34 1007.2
20260505200143 27 242 6.4 20.9 0.00 0.00 0.00 36 1007.1
20260505195640 27 346 4.8 20.9 0.00 0.00 0.00 36 1007.2
20260505195403 28 52 4.8 29.0 0.00 0.00 0.00 34 1007.3
20260505194641 28 182 3.2 29.0 0.00 0.00 0.00 35 1007.2
20260505194627 28 182 4.8 29.0 0.00 0.00 0.00 36 1007.3
20260505193640 28 0 4.8 29.0 0.00 0.00 0.00 34 1007.3
20260505193400 28 51 4.8 30.6 0.00 0.00 0.00 34 1007.4
20260505192640 28 82 6.4 30.6 0.00 0.00 0.00 36 1007.6
20260505192141 28 242 6.4 30.6 0.00 0.00 0.00 35 1007.7
20260505191640 28 286 6.4 30.6 0.00 0.00 0.00 36 1007.7
20260505191406 28 56 6.4 17.7 0.00 0.00 0.00 35 1007.7
20260505190640 28 192 8.0 17.7 0.00 0.00 0.00 34 1007.8
20260505190141 28 275 8.0 30.6 0.00 0.00 0.00 37 1007.8
20260505185640 28 344 6.4 30.6 0.00 0.00 0.00 35 1007.9
20260505185141 28 46 6.4 30.6 0.00 0.00 0.00 37 1007.9
20260505184910 28 144 4.8 30.6 0.00 0.00 0.00 36 1008.1
20260505184140 28 88 4.8 19.3 0.00 0.00 0.00 36 1008.1
20260505183640 28 90 4.8 16.1 0.00 0.00 0.00 38 1008.2
20260505183141 28 114 3.2 14.5 0.00 0.00 0.00 38 1008.4
20260505182641 28 188 4.8 11.3 0.00 0.00 0.00 40 1008.3
20260505182141 28 94 4.8 14.5 0.00 0.00 0.00 38 1008.4
20260505181902 28 5 4.8 16.1 0.00 0.00 0.00 41 1008.3
20260505181140 28 28 4.8 16.1 0.00 0.00 0.00 36 1008.4
20260505180641 28 194 4.8 14.5 0.00 0.00 0.00 41 1008.5
20260505180140 27 250 4.8 17.7 0.00 0.00 0.00 42 1008.6
20260505175638 28 211 4.8 17.7 0.00 0.00 0.00 43 1008.6
20260505175138 28 90 4.8 12.9 0.00 0.00 0.00 40 1008.7
20260505174906 28 32 4.8 12.9 0.00 0.00 0.00 43 1008.6
20260505174138 28 213 3.2 12.9 0.00 0.00 0.00 41 1008.7
20260505173639 28 215 3.2 12.9 0.00 0.00 0.00 43 1008.8
20260505173139 28 251 3.2 12.9 0.00 0.00 0.00 44 1008.9
20260505172858 28 220 3.2 11.3 0.00 0.00 0.00 43 1008.9
20260505172137 28 128 3.2 11.3 0.00 0.00 0.00 41 1009.0
20260505171906 28 60 3.2 11.3 0.00 0.00 0.00 44 1009.0
20260505171134 28 198 3.2 22.5 0.00 0.00 0.00 45 1009.0
20260505170628 27 5 3.2 22.5 0.00 0.00 0.00 45 1009.0
20260505170119 27 38 3.2 22.5 0.00 0.00 0.00 46 1009.0
20260505165612 27 229 3.2 22.5 0.00 0.00 0.00 44 1009.1
20260505165113 27 202 3.2 16.1 0.00 0.00 0.00 45 1009.3
20260505164834 27 38 3.2 14.5 0.00 0.00 0.00 45 1009.4
20260505164112 27 271 3.2 11.3 0.00 0.00 0.00 45 1009.5
20260505163608 27 169 4.8 17.7 0.00 0.00 0.00 45 1009.5
20260505163342 27 58 3.2 17.7 0.00 0.00 0.00 51 1009.6
20260505162608 26 56 3.2 17.7 0.00 0.00 0.00 46 1009.6
20260505162107 26 237 3.2 17.7 0.00 0.00 0.00 47 1009.7
20260505161604 26 53 4.8 14.5 0.00 0.00 0.00 47 1009.7
20260505161118 26 132 3.2 14.5 0.00 0.00 0.00 46 1009.7
20260505160605 26 209 3.2 12.9 0.00 0.00 0.00 47 1009.7
20260505160338 26 339 3.2 12.9 0.00 0.00 0.00 47 1009.8
20260505153046 25 142 3.2 12.9 0.00 0.00 0.00 50 1010.2
20260505152538 25 71 3.2 12.9 0.00 0.00 0.00 53 1010.2
20260505152027 25 108 3.2 12.9 0.00 0.00 0.00 51 1010.2
20260505151533 24 298 3.2 12.9 0.00 0.00 0.00 54 1010.3
20260505151014 24 66 3.2 9.7 0.00 0.00 0.00 54 1010.2
20260505150504 24 210 3.2 14.5 0.00 0.00 0.00 52 1010.2
20260505150439 23 96 3.2 14.5 0.00 0.00 0.00 53 1010.2